Vertical_Velocity
-1 -1 -1 -0 -0 0 0 0 0 0 -0 -0 -0 -0 -0 0 0 0 0 0 0 0 0 -0 -0 -0 -0 -0 -0 -0 -0 -1 -1 -1 -0 -0 -0 -0 -0 -0 0 0 0 0 0 -0 -0 -1 -1 -1 -1 -1 -1 -2 -2 -2 -2 -1 -1 -1 -1 -1 -1 -1 -1 -1 -1 -1 -1
-1 -1 -1 -0 -0 0 0 0 0 0 0 0 0 0 0 0 0 0 0 0 0 0 -0 -0 -0 -0 -0 -0 -0 -0 -0 -0 -0 -0 -0 0 0 0 0 -0 -0 -0 -0 -1 -1 -1 -1 -1 -2 -2 -2 -1 -1 -2 -2 -2 -2 -1 -1 -0 -0 -0 -0 -0 -0 -0 -0 -1 -1
-1 -1 -1 -1 -0 -0 0 0 0 0 0 0 0 0 0 0 0 0 0 -0 -0 -0 -0 -0 -1 -1 -1 -1 -0 -0 -0 -0 -0 -0 0 0 0 0 -0 -0 -1 -1 -1 -1 -1 -1 -1 -1 -1 -2 -2 -1 -1 -1 -1 -2 -1 -1 -1 -0 -0 0 -0 -0 -0 -0 -1 -1 -1
-1 -1 -1 -1 -1 -0 -0 0 0 0 0 -0 0 0 0 0 0 0 -0 -0 -0 -0 -0 -1 -1 -1 -1 -1 -0 -0 0 0 0 0 0 -0 -0 -0 -0 -1 -1 -1 -1 -1 -1 -1 -1 -1 -1 -1 -1 -1 -1 -0 -0 -1 -1 -1 -1 -1 -1 -1 -1 -1 -0 -1 -1 -1 -1
-1 -1 -1 -1 -1 -0 -0 0 0 0 0 0 0 -0 -0 -0 -0 -0 -0 -0 -0 -0 -0 -1 -1 -1 -1 -1 -1 -0 0 1 0 0 0 0 -0 -0 -0 -0 -1 -1 -1 -1 -1 -1 -1 -1 -0 -0 -0 -0 -0 0 0 -0 -0 -1 -1 -1 -1 -1 -1 -1 -1 -0 -0 -1 -1
-1 -1 -1 -1 -1 -0 0 0 0 0 0 0 -0 -0 -0 -0 0 0 0 -0 -0 -0 -0 -0 -1 -1 -1 -1 -1 -0 0 1 1 1 0 0 0 0 0 -0 -0 -0 -1 -1 -1 -1 -0 -0 -0 -0 0 0 0 0 0 0 -0 -0 -0 -0 -0 -0 -0 -1 -1 -0 -1 -1 -1
-1 -1 -1 -1 -0 -0 0 0 0 0 0 0 0 -0 -0 -0 0 0 -0 -0 -0 -0 -0 -0 -1 -1 -1 -1 -1 -0 0 1 1 0 0 0 -0 -0 0 -0 -0 -0 -0 -1 -1 -0 -0 -0 -0 -0 0 0 0 0 0 1 0 0 0 0 0 0 -0 -1 -1 -1 -1 -1 -1
-1 -1 -1 -0 -0 0 0 0 0 0 0 0 0 -0 -0 -0 -0 -0 -0 0 -0 -0 -1 -1 -1 -1 -1 -0 -0 -0 0 0 0 0 0 0 -0 -0 -0 -0 -0 -0 -0 -1 -0 -0 -0 0 0 0 0 0 0 0 1 1 1 1 1 0 0 0 0 -0 -1 -1 -1 -1 -1
-1 -0 -0 -0 -0 -0 0 0 0 0 0 0 0 -0 -0 -0 -0 -0 -0 -0 -1 -1 -1 -1 -1 -1 -0 0 0 0 0 0 0 0 -0 -0 -0 -1 -1 -0 -0 -0 -0 -0 -0 -0 0 0 0 1 1 1 1 1 1 1 0 0 0 0 -0 -0 -0 0 -0 -0 -0 0 0
-0 -0 -0 -0 -0 -0 0 0 -0 0 0 -0 -0 -0 -0 -0 -1 -1 -1 -1 -1 -1 -1 -1 -1 -0 0 1 1 0 0 -0 -0 -0 -0 -1 -1 -1 -1 -0 -0 -0 -0 0 0 0 0 1 1 1 1 1 1 1 1 1 0 -0 -0 -0 -0 -0 -0 0 1 1 1 1 1
-0 -0 0 -0 -0 -0 -0 -0 -0 -0 -0 -0 -1 -1 -1 -1 -1 -1 -1 -1 -1 -1 -1 -1 -0 0 1 1 1 1 0 -0 -0 -1 -1 -1 -1 -0 -0 -0 -0 -0 0 0 1 1 1 1 1 1 1 1 1 1 0 0 -0 -0 -0 -0 0 0 0 0 1 1 1 0 0
0 0 0 -0 -0 -0 -0 -1 -1 -1 -1 -1 -1 -1 -1 -1 -1 -1 -1 -1 -1 -1 -1 -0 1 1 1 1 0 0 -0 -0 -1 -1 -1 -1 -0 -0 0 0 0 0 0 1 1 1 2 2 2 1 1 1 1 0 0 -0 -0 -0 -0 0 0 0 0 -0 0 0 0 0 -0
0 0 -0 -0 -0 -1 -1 -1 -1 -1 -1 -1 -1 -1 -1 -1 -2 -1 -1 -1 -1 -0 -0 0 1 0 0 -0 -0 -1 -1 -1 -1 -1 -1 -0 -0 0 0 0 1 1 1 1 2 2 2 2 2 1 1 1 0 0 0 0 -0 -0 -0 -0 -0 -0 -0 -0 -0 -0 -0 -0 -1
0 -0 -0 -0 -1 -1 -1 -1 -1 -1 -1 -1 -1 -1 -1 -1 -1 -1 -1 -0 -0 -0 0 -0 -0 -0 -1 -1 -1 -1 -1 -1 -1 -0 -0 -0 -0 0 0 1 1 1 1 2 2 2 2 2 1 1 1 0 0 0 0 0 -0 -0 -0 -0 -0 -0 -1 -1 -0 -0 -1 -1 -1
0 -0 -0 -0 -1 -1 -1 -0 -1 -1 -1 -1 -1 -1 -1 -1 -1 -1 -0 -0 -0 -0 -1 -1 -1 -1 -1 -1 -1 -0 -0 -0 -0 -0 -0 -0 0 0 1 1 1 2 2 2 2 2 1 1 1 1 1 0 0 0 0 0 -0 -0 -0 -1 -1 -1 -1 -1 -1 -1 -1 -1 -1
-0 -0 -0 -0 -1 -1 -1 -0 -1 -0 -1 -1 -1 -1 -0 -1 -1 -0 -0 -0 -1 -1 -1 -1 -1 -1 -1 -1 -0 -0 -0 -0 -1 -1 -0 -0 0 1 1 1 2 2 2 2 2 2 1 1 1 1 1 0 0 0 -0 -0 -0 -1 -1 -1 -1 -1 -1 -1 -1 -1 -1 -1 -1
-0 -0 -0 -0 -1 -1 -1 -1 -1 -0 -0 -1 -1 -0 -0 -0 -0 -0 -0 -1 -1 -1 -2 -2 -1 -1 -1 -1 -0 -0 -0 -0 -0 -0 -0 0 1 1 2 2 2 2 2 2 2 2 1 1 1 1 1 0 0 -0 -0 -0 -1 -1 -1 -1 -1 -1 -1 -1 -1 -1 -1 -2 -2
0 -0 -0 -0 -1 -1 -1 -1 -0 -0 -0 -0 -0 -0 -0 -0 -0 -1 -1 -1 -2 -2 -2 -2 -1 -1 -1 -1 -1 -0 -0 -0 -0 -0 0 1 1 2 2 2 2 2 2 1 1 1 1 1 1 1 1 0 0 -0 -0 -1 -1 -1 -1 -1 -1 -1 -1 -1 -1 -1 -2 -2 -2
0 -0 -0 -0 -0 -0 -0 -0 -0 -0 -0 -0 -0 -0 -0 -0 -1 -1 -1 -2 -2 -2 -2 -2 -2 -1 -1 -1 -0 -0 -0 -0 -0 0 1 1 2 2 2 2 2 2 1 1 1 1 1 1 1 1 1 0 -0 -0 -0 -1 -1 -1 -1 -1 -1 -1 -2 -2 -2 -2 -2 -2 -2
0 0 -0 -0 -0 -0 -0 -0 -0 -0 -0 -0 -0 -0 -0 -1 -1 -1 -1 -2 -2 -2 -2 -2 -1 -1 -1 -0 -0 0 0 0 0 1 1 2 2 2 2 2 1 1 1 1 1 1 1 1 1 1 0 0 -0 -0 -0 -0 -1 -1 -1 -1 -1 -2 -2 -2 -2 -2 -2 -2 -2
0 0 0 0 0 0 -0 -0 -0 -0 -0 -0 -0 -0 -1 -1 -1 -1 -2 -2 -2 -2 -2 -1 -1 -1 -0 -0 0 0 0 1 1 1 1 2 2 2 2 1 1 1 1 1 1 1 1 1 1 0 0 0 -0 -0 -0 -1 -1 -1 -2 -2 -2 -2 -2 -2 -2 -2 -2 -2 -2
0 0 0 0 0 0 -0 -0 -0 -0 -0 -1 -1 -1 -1 -1 -2 -2 -2 -2 -2 -2 -1 -1 -0 -0 -0 0 0 0 1 1 1 1 1 1 1 1 1 1 1 1 1 1 1 1 1 1 1 1 0 0 -0 -0 -1 -1 -1 -2 -2 -2 -2 -2 -2 -2 -2 -2 -2 -2 -2
0 1 1 1 0 0 -0 -0 -1 -1 -1 -1 -1 -1 -2 -2 -3 -3 -2 -2 -2 -1 -1 -1 -0 0 0 0 0 0 1 1 1 1 1 1 1 1 1 1 1 1 1 1 1 1 1 1 1 1 0 -0 -1 -1 -1 -2 -2 -1 -1 -2 -2 -2 -1 -1 -1 -1 -2 -2 -2
0 0 1 1 0 0 -0 -1 -1 -1 -1 -1 -2 -2 -2 -3 -3 -3 -2 -2 -1 -1 -0 -0 -0 0 0 0 0 1 1 1 1 1 1 1 1 1 1 1 1 0 0 1 1 1 1 1 1 1 0 0 -1 -1 -2 -2 -1 -1 -1 -1 -1 -1 -1 -1 -1 -1 -1 -1 -1
0 0 0 0 -0 -0 -1 -1 -1 -1 -2 -2 -2 -2 -3 -3 -3 -2 -2 -1 -1 -0 -0 -0 -0 0 0 0 0 1 1 0 0 0 0 1 1 1 1 1 1 1 1 1 1 1 1 1 1 1 0 0 -0 -1 -1 -1 -1 -1 -1 -0 -0 -0 -1 -1 -1 -1 -1 -1 -1
0 0 0 -0 -0 -1 -1 -1 -2 -2 -2 -2 -2 -3 -3 -3 -3 -2 -1 -1 -0 -0 -0 -0 -0 0 0 0 0 0 0 0 0 -0 -0 0 0 1 1 1 1 1 1 1 1 0 0 -0 0 0 0 0 -0 -1 -1 -1 -1 -0 -0 -0 -0 -0 -0 -0 -0 -0 -0 -0 -0
0 -0 -0 -1 -1 -1 -1 -2 -2 -2 -2 -3 -3 -3 -3 -3 -2 -2 -1 -1 -0 -0 0 -0 -0 -0 -0 0 0 0 0 0 0 -0 -0 -0 0 0 1 1 1 1 1 0 0 -0 -0 -1 -0 -0 0 0 0 -0 -1 -1 -1 -0 -0 -0 -0 -0 0 0 0 0 -0 -0 -0
-0 -1 -1 -1 -1 -1 -2 -2 -2 -2 -3 -3 -3 -3 -2 -2 -1 -1 -1 -0 -0 -0 -0 -0 -0 -0 -0 -0 -0 -0 -0 -0 -0 -0 -0 0 0 0 0 0 0 0 0 0 -0 -0 -0 -1 -1 -0 -0 0 0 -0 -0 -1 -1 -0 -0 0 -0 -0 -0 0 0 1 1 0 -0
-1 -1 -1 -1 -2 -2 -2 -2 -2 -3 -3 -2 -2 -2 -2 -1 -1 -1 -1 -0 -0 -0 -0 -0 -0 -0 -1 -1 -1 -0 -0 -0 -0 -0 -0 0 0 0 0 0 -0 -0 -0 -0 -0 -0 -0 -0 -0 -1 -0 -0 -0 -0 -0 0 0 -0 -0 -0 -0 -0 -0 -0 -0 0 0 0 0
-1 -2 -2 -2 -2 -2 -2 -2 -2 -2 -2 -2 -1 -1 -1 -1 -1 -1 -1 -0 -0 -0 -0 -0 -1 -1 -1 -1 -1 -0 -0 -0 0 0 -0 -0 0 0 0 0 -0 -0 -0 -0 -0 -0 -0 -0 -0 -1 -1 -1 -0 0 0 0 0 0 -0 -0 -1 -1 -1 -1 -1 -1 -1 -0 -0
-2 -2 -2 -2 -2 -2 -2 -2 -2 -1 -1 -1 -1 -0 -0 -0 -0 -1 -1 -0 -0 -0 -1 -1 -1 -1 -1 -1 -1 -0 -0 0 0 0 0 -0 -0 -0 0 0 -0 -0 0 0 -0 -0 -0 -0 -0 -0 -0 -1 -0 -0 0 0 0 -0 -0 -1 -1 -1 -1 -1 -1 -1 -1 -1 -1
-2 -2 -2 -2 -2 -2 -2 -2 -1 -1 -1 -0 -0 -0 -0 -0 -0 -1 -1 -1 -1 -1 -1 -1 -1 -1 -1 -1 -0 -0 -0 0 0 0 0 -0 -0 -0 -0 0 0 0 0 -0 -0 -0 -0 -0 -0 -0 -0 -0 -0 -0 -0 -0 -0 -0 -1 -1 -1 -1 -2 -2 -2 -2 -2 -2 -2
-2 -2 -2 -2 -2 -2 -1 -1 -1 -1 -0 -0 -0 -0 -0 -0 -1 -1 -1 -1 -1 -1 -1 -1 -1 -1 -1 -0 -0 -0 0 0 0 0 0 -0 -0 -0 -0 -0 0 -0 -0 -0 -0 -0 -0 -0 0 0 0 0 0 0 0 -0 -0 -0 -1 -1 -1 -1 -2 -2 -2 -2 -2 -3 -2
-2 -2 -2 -2 -1 -1 -1 -1 -1 -0 -0 -0 -0 -0 -0 -1 -1 -1 -1 -1 -1 -1 -1 -1 -1 -1 -1 -1 -0 -0 -0 0 0 0 -0 -0 -0 -0 -0 -0 -0 -0 -0 -0 -1 -1 -0 -0 0 0 1 1 1 0 0 -0 -0 -1 -1 -1 -1 -1 -2 -2 -2 -2 -3 -3 -3
-1 -1 -1 -1 -1 -1 -1 -1 -0 -0 -0 -0 -1 -1 -1 -1 -1 -1 -1 -1 -1 -1 -1 -1 -1 -1 -1 -1 -1 -1 -1 -1 -0 -0 -0 -0 -1 -1 -1 -0 -0 -0 -0 -0 -1 -1 -0 -0 0 0 1 1 1 1 1 0 -0 -1 -1 -1 -1 -1 -1 -2 -2 -2 -3 -3 -3
-1 -1 -1 -1 -1 -0 -0 -0 -0 -1 -1 -1 -1 -1 -1 -1 -1 -1 -1 -1 -1 -1 -1 -1 -1 -1 -1 -1 -1 -1 -1 -1 -1 -1 -0 -0 -1 -1 -1 -1 -0 -0 -0 -0 -0 -0 -0 0 0 0 1 1 1 1 1 1 0 -0 -0 -1 -1 -1 -1 -1 -2 -2 -3 -3 -3
-1 -1 -1 -1 -0 -0 -0 -0 -1 -1 -1 -1 -1 -1 -1 -1 -1 -1 -1 -1 -1 -1 -0 -0 -0 -0 -1 -1 -1 -1 -1 -1 -1 -1 -1 -0 -1 -1 -1 -1 -1 -0 -0 -0 -0 -0 -0 0 0 0 1 1 1 1 1 1 1 0 0 -0 -1 -1 -1 -1 -1 -2 -2 -3 -3
-0 -0 -0 -0 -0 -0 -0 -0 -1 -1 -1 -1 -1 -1 -1 -1 -1 -0 -0 -0 -0 -1 -0 -0 -0 -0 -1 -1 -1 -1 -1 -0 -1 -1 -1 -1 -1 -1 -1 -1 -1 -0 -0 0 -0 -0 -0 -0 0 0 0 1 1 1 1 1 1 1 0 0 -0 -1 -1 -2 -1 -1 -2 -2 -3
0 0 -0 -0 -0 -0 -0 -0 -1 -1 -1 -1 -1 -1 -1 -1 -0 -0 -0 0 -0 -0 -0 -0 -0 -0 -0 -1 -1 -1 -1 -0 -0 -1 -1 -1 -1 -1 -1 -1 -1 -1 -0 0 0 -0 -0 -0 -0 0 0 1 1 1 1 1 1 1 0 0 -0 -1 -1 -2 -1 -1 -1 -1 -2
0 0 0 -0 -0 -0 -0 -1 -1 -1 -1 -1 -1 -1 -1 -0 -0 -0 0 0 -0 -0 -0 -0 -0 -0 -1 -1 -1 -1 -1 -0 -0 -0 -1 -1 -1 -0 -0 -0 -1 -0 -0 0 0 0 -0 -0 -0 -0 0 0 0 0 0 1 1 1 0 0 -0 -1 -1 -1 -1 -1 -1 -1 -1
0 0 -0 -0 -0 -0 -0 -1 -1 -1 -0 -0 -1 -1 -0 -0 -0 -0 0 0 -0 -0 -0 -0 -1 -1 -1 -1 -1 -1 -1 -1 -0 -0 -0 -0 -0 -0 0 0 -0 -0 -0 0 0 0 -0 -0 -0 -0 -0 -0 -0 -0 -0 -0 0 0 0 0 -0 -1 -1 -1 -1 -1 -1 -1 -1
Height
3092 3092 3092 3091 3091 3091 3091 3091 3090 3090 3090 3089 3089 3088 3088 3088 3087 3087 3087 3086 3086 3085 3085 3084 3084 3084 3083 3083 3083 3083 3082 3082 3081 3081 3081 3080 3080 3079 3078 3078 3078 3077 3077 3077 3076 3076 3075 3074 3074 3073 3073 3072 3071 3070 3070 3069 3068 3068 3067 3066 3065 3064 3063 3062 3061 3060 3059 3058 3058
3091 3091 3090 3090 3090 3090 3090 3089 3089 3089 3088 3088 3088 3087 3087 3087 3086 3086 3085 3085 3085 3084 3084 3083 3083 3083 3083 3082 3082 3082 3081 3081 3080 3080 3079 3079 3078 3078 3077 3077 3076 3076 3075 3075 3074 3074 3073 3073 3072 3072 3071 3070 3070 3069 3068 3067 3066 3065 3065 3064 3063 3062 3061 3060 3059 3058 3058 3057 3056
3090 3090 3089 3089 3089 3089 3089 3088 3088 3088 3087 3087 3087 3086 3086 3086 3085 3085 3084 3084 3084 3083 3083 3083 3082 3082 3082 3081 3081 3081 3080 3080 3079 3078 3078 3078 3077 3076 3076 3075 3075 3074 3074 3073 3073 3072 3072 3071 3071 3070 3069 3068 3068 3067 3066 3065 3064 3063 3063 3062 3061 3060 3059 3058 3058 3057 3056 3055 3054
3089 3089 3088 3088 3088 3088 3088 3087 3087 3087 3086 3086 3085 3085 3085 3084 3084 3084 3083 3083 3083 3082 3082 3082 3081 3081 3081 3080 3080 3079 3079 3078 3078 3077 3077 3076 3075 3075 3074 3074 3073 3073 3072 3072 3071 3071 3070 3070 3069 3068 3068 3067 3066 3065 3064 3063 3062 3061 3061 3060 3059 3058 3057 3057 3056 3055 3054 3053 3053
3088 3088 3088 3087 3087 3087 3086 3086 3086 3085 3085 3084 3084 3084 3083 3083 3083 3083 3082 3082 3082 3081 3081 3081 3080 3080 3079 3079 3078 3078 3078 3077 3077 3076 3075 3075 3074 3073 3073 3073 3072 3071 3071 3070 3070 3069 3068 3068 3067 3067 3066 3065 3064 3063 3063 3062 3061 3060 3059 3058 3057 3056 3055 3055 3054 3053 3053 3052 3051
3087 3087 3086 3086 3085 3085 3085 3085 3084 3084 3084 3083 3083 3083 3082 3082 3082 3081 3081 3081 3081 3080 3080 3079 3079 3079 3078 3078 3077 3077 3076 3076 3075 3074 3074 3073 3073 3072 3072 3071 3071 3070 3069 3069 3068 3068 3067 3066 3065 3065 3064 3063 3062 3062 3061 3060 3059 3058 3057 3056 3055 3054 3054 3053 3052 3051 3051 3050 3049
3085 3085 3085 3084 3084 3084 3084 3083 3083 3083 3083 3082 3082 3082 3081 3081 3080 3080 3080 3080 3079 3079 3079 3078 3078 3078 3077 3077 3076 3075 3074 3074 3073 3073 3072 3072 3071 3071 3070 3070 3069 3068 3068 3067 3067 3066 3065 3064 3063 3063 3062 3061 3060 3059 3059 3058 3057 3056 3055 3054 3054 3053 3052 3051 3051 3050 3049 3048 3047
3084 3083 3083 3083 3083 3083 3082 3082 3082 3081 3081 3081 3081 3080 3080 3079 3079 3079 3078 3078 3078 3078 3077 3077 3077 3076 3076 3075 3074 3073 3073 3072 3072 3071 3071 3070 3070 3069 3068 3068 3068 3067 3066 3065 3065 3064 3063 3063 3062 3061 3060 3059 3058 3058 3057 3056 3055 3055 3054 3053 3052 3051 3050 3050 3049 3048 3047 3046 3045
3082 3082 3082 3082 3081 3081 3081 3081 3080 3080 3080 3079 3079 3079 3078 3078 3078 3078 3077 3077 3077 3076 3076 3076 3075 3075 3074 3073 3073 3072 3071 3071 3070 3070 3069 3068 3068 3068 3067 3066 3066 3065 3064 3063 3063 3062 3061 3061 3060 3059 3058 3058 3057 3056 3055 3054 3053 3053 3052 3051 3050 3050 3049 3048 3047 3046 3045 3044 3043
3081 3080 3080 3080 3080 3079 3079 3079 3079 3078 3078 3078 3078 3077 3077 3077 3076 3076 3076 3075 3075 3075 3074 3074 3073 3073 3072 3072 3071 3070 3070 3069 3068 3068 3068 3067 3066 3066 3065 3064 3064 3063 3063 3062 3061 3060 3060 3059 3058 3057 3057 3056 3055 3054 3053 3053 3052 3051 3050 3049 3049 3048 3047 3046 3045 3044 3043 3042 3041
3079 3079 3078 3078 3078 3078 3078 3078 3077 3077 3077 3076 3076 3076 3075 3075 3075 3074 3074 3074 3073 3073 3073 3072 3072 3071 3071 3070 3069 3069 3068 3068 3067 3066 3066 3065 3064 3064 3063 3063 3062 3061 3061 3060 3059 3058 3058 3057 3056 3055 3055 3054 3053 3053 3052 3051 3050 3049 3048 3048 3047 3046 3045 3044 3043 3042 3041 3039 3038
3077 3077 3077 3077 3077 3077 3076 3076 3076 3076 3075 3075 3074 3074 3074 3073 3073 3073 3073 3072 3072 3072 3071 3071 3070 3069 3069 3068 3068 3067 3067 3066 3065 3065 3064 3063 3063 3062 3062 3061 3060 3059 3059 3058 3057 3057 3056 3055 3054 3054 3053 3052 3051 3051 3050 3049 3048 3047 3047 3046 3045 3043 3043 3042 3040 3039 3038 3037 3036
3075 3075 3075 3075 3075 3075 3075 3075 3074 3074 3074 3073 3073 3073 3072 3072 3072 3071 3071 3071 3070 3070 3069 3069 3068 3068 3067 3067 3066 3066 3065 3064 3063 3063 3062 3062 3061 3060 3060 3059 3058 3058 3057 3056 3055 3055 3054 3053 3053 3052 3051 3050 3050 3049 3048 3047 3046 3045 3044 3043 3042 3041 3040 3039 3038 3037 3036 3034 3033
3074 3074 3074 3074 3073 3073 3073 3073 3073 3073 3072 3072 3071 3071 3071 3070 3070 3070 3069 3069 3068 3068 3068 3067 3067 3066 3065 3065 3064 3063 3063 3062 3062 3061 3060 3059 3059 3058 3058 3057 3056 3055 3055 3054 3053 3053 3052 3052 3051 3050 3049 3048 3048 3047 3046 3045 3044 3043 3042 3041 3040 3039 3038 3037 3036 3034 3033 3032 3030
3073 3072 3072 3072 3072 3072 3072 3072 3071 3071 3071 3070 3070 3069 3069 3069 3068 3068 3068 3067 3067 3066 3066 3065 3065 3064 3064 3063 3062 3062 3061 3060 3060 3059 3058 3058 3057 3056 3056 3055 3054 3053 3053 3052 3052 3051 3050 3049 3049 3048 3047 3047 3046 3045 3043 3043 3042 3041 3040 3039 3038 3037 3035 3034 3033 3032 3030 3029 3028
3071 3071 3071 3071 3070 3070 3070 3070 3070 3069 3069 3069 3068 3068 3068 3067 3067 3066 3066 3066 3065 3065 3064 3064 3063 3063 3062 3061 3060 3060 3059 3058 3058 3057 3056 3055 3055 3054 3053 3053 3052 3052 3051 3050 3050 3049 3048 3048 3047 3046 3045 3044 3043 3043 3041 3040 3039 3038 3037 3036 3035 3034 3033 3032 3030 3029 3028 3026 3025
3069 3069 3069 3069 3069 3068 3068 3068 3068 3068 3067 3067 3067 3066 3066 3065 3065 3065 3064 3064 3063 3063 3063 3062 3061 3061 3060 3059 3058 3058 3057 3056 3055 3055 3054 3053 3053 3052 3052 3051 3050 3049 3049 3048 3048 3047 3046 3045 3045 3044 3043 3042 3041 3040 3039 3038 3037 3036 3035 3034 3033 3032 3030 3029 3028 3026 3025 3023 3022
3068 3067 3067 3067 3067 3067 3067 3066 3066 3066 3066 3065 3065 3064 3064 3064 3063 3063 3063 3062 3062 3061 3061 3060 3059 3058 3058 3057 3056 3055 3055 3054 3053 3053 3052 3051 3051 3050 3049 3049 3048 3048 3047 3046 3045 3045 3044 3043 3043 3042 3041 3040 3039 3038 3037 3036 3035 3034 3033 3032 3030 3029 3028 3026 3025 3023 3022 3021 3019
3066 3066 3065 3065 3065 3065 3065 3064 3064 3064 3064 3063 3063 3063 3063 3062 3062 3061 3061 3061 3060 3059 3059 3058 3057 3056 3055 3054 3054 3053 3053 3052 3051 3050 3050 3049 3048 3048 3047 3047 3046 3045 3045 3044 3043 3043 3042 3041 3040 3040 3039 3038 3037 3036 3035 3034 3033 3031 3030 3029 3028 3026 3025 3023 3022 3021 3019 3018 3017
3064 3064 3064 3063 3063 3063 3063 3063 3063 3062 3062 3062 3061 3061 3061 3060 3060 3060 3059 3059 3058 3058 3057 3056 3055 3054 3053 3052 3051 3051 3050 3050 3049 3048 3048 3047 3047 3046 3045 3045 3044 3043 3043 3042 3041 3040 3040 3039 3038 3038 3037 3036 3035 3034 3033 3031 3030 3029 3028 3026 3025 3024 3023 3021 3020 3018 3017 3015 3014
3062 3062 3062 3062 3062 3061 3061 3061 3060 3060 3060 3060 3059 3059 3059 3058 3058 3058 3057 3057 3056 3055 3054 3053 3053 3052 3051 3050 3049 3048 3048 3048 3047 3046 3046 3045 3044 3044 3043 3043 3042 3041 3040 3040 3039 3038 3038 3037 3036 3035 3034 3033 3033 3031 3030 3029 3028 3026 3025 3024 3023 3021 3020 3018 3017 3016 3014 3013 3011
3060 3060 3060 3060 3060 3059 3059 3059 3058 3058 3058 3058 3058 3057 3057 3057 3056 3056 3055 3055 3054 3053 3052 3051 3050 3049 3048 3048 3047 3047 3046 3045 3045 3044 3043 3043 3042 3042 3041 3040 3040 3039 3038 3037 3037 3036 3035 3035 3034 3033 3032 3031 3030 3029 3028 3026 3025 3024 3023 3022 3020 3019 3018 3016 3014 3013 3011 3010 3008
3058 3058 3058 3058 3058 3057 3057 3057 3057 3056 3056 3056 3055 3055 3055 3054 3054 3053 3053 3052 3051 3051 3050 3049 3048 3047 3047 3046 3045 3044 3044 3043 3043 3042 3042 3041 3040 3040 3039 3038 3038 3037 3036 3035 3034 3034 3033 3032 3032 3031 3030 3028 3028 3026 3025 3024 3023 3022 3021 3020 3018 3017 3015 3013 3012 3010 3009 3007 3005
3056 3056 3056 3056 3055 3055 3055 3055 3054 3054 3054 3054 3053 3053 3053 3052 3052 3051 3051 3050 3049 3048 3048 3047 3046 3045 3044 3044 3043 3043 3042 3041 3040 3040 3039 3039 3038 3038 3037 3036 3035 3034 3034 3033 3032 3031 3031 3030 3029 3028 3027 3026 3025 3024 3023 3022 3021 3020 3018 3017 3016 3014 3013 3011 3009 3008 3006 3004 3003
3054 3054 3054 3053 3053 3053 3053 3053 3052 3052 3052 3052 3051 3051 3051 3050 3049 3049 3048 3047 3047 3046 3045 3044 3044 3043 3043 3042 3041 3041 3040 3039 3038 3038 3037 3036 3036 3035 3034 3034 3033 3032 3031 3030 3030 3029 3028 3027 3027 3026 3025 3024 3023 3022 3021 3019 3018 3017 3016 3015 3013 3012 3011 3009 3007 3005 3003 3002 3000
3052 3052 3052 3051 3051 3051 3051 3050 3050 3050 3050 3049 3049 3049 3048 3048 3047 3046 3046 3045 3044 3043 3043 3043 3042 3041 3040 3040 3039 3038 3038 3037 3036 3036 3035 3034 3034 3033 3032 3031 3031 3030 3029 3028 3027 3026 3025 3025 3024 3023 3023 3022 3021 3019 3018 3017 3016 3015 3013 3012 3011 3009 3008 3006 3005 3003 3001 2999 2997
3050 3050 3049 3049 3049 3049 3048 3048 3048 3048 3048 3047 3047 3046 3046 3045 3044 3044 3043 3043 3042 3041 3041 3040 3040 3039 3038 3038 3037 3036 3036 3035 3034 3033 3033 3032 3032 3031 3030 3029 3028 3027 3026 3025 3025 3024 3023 3022 3021 3021 3020 3019 3018 3017 3016 3015 3013 3012 3011 3009 3008 3007 3005 3003 3002 3000 2998 2996 2994
3048 3048 3048 3047 3047 3047 3047 3046 3046 3046 3045 3045 3044 3044 3043 3043 3042 3042 3041 3040 3040 3039 3039 3038 3038 3037 3036 3036 3035 3034 3033 3033 3032 3031 3031 3030 3029 3028 3028 3027 3026 3025 3024 3023 3022 3021 3020 3019 3018 3018 3017 3016 3015 3014 3013 3012 3011 3009 3008 3007 3005 3003 3002 3000 2998 2997 2995 2993 2992
3047 3046 3046 3046 3045 3045 3045 3044 3044 3043 3043 3043 3042 3042 3041 3041 3040 3039 3039 3038 3038 3038 3037 3036 3036 3035 3034 3033 3033 3032 3031 3031 3030 3029 3028 3028 3027 3026 3025 3024 3023 3023 3022 3021 3020 3019 3018 3017 3016 3015 3014 3013 3012 3012 3011 3009 3008 3007 3005 3004 3002 3000 2998 2997 2995 2993 2992 2990 2988
3045 3045 3044 3044 3044 3043 3043 3043 3042 3042 3041 3041 3040 3039 3039 3038 3038 3037 3037 3036 3036 3035 3035 3034 3033 3033 3032 3031 3031 3030 3029 3028 3028 3027 3026 3025 3024 3024 3023 3022 3021 3020 3019 3018 3017 3016 3015 3014 3013 3012 3011 3010 3010 3009 3008 3007 3005 3004 3002 3001 2999 2997 2995 2993 2992 2990 2988 2987 2985
3043 3043 3043 3043 3042 3042 3041 3041 3040 3040 3039 3038 3038 3038 3037 3036 3036 3035 3035 3034 3034 3033 3033 3032 3032 3031 3030 3029 3028 3028 3027 3026 3025 3025 3024 3023 3022 3021 3020 3020 3019 3018 3017 3016 3015 3014 3013 3012 3011 3010 3009 3008 3007 3006 3005 3004 3002 3001 2999 2998 2996 2994 2992 2990 2988 2987 2985 2983 2982
3042 3042 3041 3041 3040 3040 3039 3039 3038 3038 3037 3037 3036 3035 3035 3034 3034 3033 3033 3033 3032 3031 3031 3030 3029 3028 3028 3027 3026 3026 3025 3024 3023 3022 3021 3021 3020 3019 3018 3017 3016 3015 3014 3013 3012 3011 3010 3009 3009 3008 3007 3006 3004 3003 3002 3001 2999 2998 2996 2994 2993 2991 2989 2987 2985 2983 2982 2980 2978
3040 3039 3039 3039 3038 3038 3037 3037 3036 3036 3035 3035 3034 3033 3033 3033 3032 3031 3031 3030 3030 3029 3028 3028 3027 3026 3025 3025 3024 3023 3023 3022 3021 3020 3019 3018 3017 3017 3016 3015 3014 3013 3012 3011 3010 3009 3008 3007 3006 3005 3004 3003 3002 3001 2999 2998 2996 2995 2993 2991 2990 2988 2986 2984 2982 2980 2979 2977 2975
3038 3037 3037 3037 3036 3036 3035 3035 3034 3034 3033 3033 3032 3032 3031 3030 3030 3029 3029 3028 3028 3027 3026 3026 3025 3024 3023 3023 3022 3021 3020 3019 3018 3018 3017 3016 3015 3014 3013 3013 3012 3010 3009 3008 3008 3007 3006 3005 3004 3003 3002 3001 2999 2998 2997 2995 2994 2992 2990 2989 2987 2985 2983 2981 2979 2978 2976 2974 2972
3035 3035 3035 3034 3034 3033 3033 3033 3032 3032 3031 3031 3030 3029 3029 3028 3028 3027 3027 3026 3025 3025 3024 3023 3023 3022 3021 3020 3019 3018 3018 3017 3016 3015 3014 3013 3013 3012 3011 3010 3009 3008 3007 3006 3005 3004 3003 3003 3002 3001 2999 2998 2997 2996 2994 2993 2991 2990 2988 2986 2984 2983 2981 2979 2977 2975 2973 2971 2969
3033 3033 3032 3032 3031 3031 3031 3030 3030 3029 3029 3028 3028 3027 3027 3026 3025 3025 3024 3024 3023 3023 3022 3021 3020 3019 3019 3018 3017 3016 3015 3014 3013 3013 3012 3011 3010 3009 3009 3008 3007 3006 3005 3004 3003 3002 3001 3000 2999 2998 2997 2996 2995 2993 2992 2990 2989 2987 2986 2984 2982 2980 2978 2976 2974 2973 2970 2968 2966
3031 3031 3030 3029 3029 3029 3028 3028 3028 3027 3027 3026 3025 3025 3024 3024 3023 3023 3022 3021 3021 3020 3020 3019 3018 3017 3016 3015 3015 3014 3013 3012 3011 3010 3009 3009 3008 3007 3006 3006 3005 3004 3003 3002 3001 3000 2999 2998 2996 2995 2994 2993 2992 2991 2989 2988 2986 2985 2983 2982 2980 2978 2976 2974 2972 2970 2968 2966 2963
3029 3028 3028 3027 3027 3026 3026 3025 3025 3024 3024 3023 3023 3023 3022 3022 3021 3020 3020 3019 3018 3018 3017 3016 3016 3015 3014 3013 3012 3011 3011 3010 3009 3008 3007 3007 3006 3005 3004 3003 3002 3001 3000 2999 2998 2997 2996 2995 2994 2993 2991 2990 2989 2988 2987 2985 2984 2982 2981 2979 2977 2975 2973 2971 2969 2967 2965 2963 2961
3027 3026 3026 3025 3024 3024 3023 3023 3023 3022 3022 3021 3021 3020 3020 3019 3019 3018 3018 3017 3016 3015 3015 3014 3013 3012 3011 3010 3010 3009 3008 3008 3007 3006 3005 3004 3003 3003 3002 3001 3000 2999 2998 2997 2996 2995 2993 2992 2991 2990 2988 2987 2986 2985 2984 2983 2981 2979 2978 2976 2974 2973 2970 2968 2967 2965 2963 2961 2959
3024 3024 3023 3023 3022 3022 3021 3021 3020 3020 3019 3019 3018 3018 3017 3017 3016 3016 3015 3014 3014 3013 3012 3012 3011 3010 3009 3008 3007 3006 3006 3005 3004 3003 3003 3002 3001 3000 2999 2998 2998 2997 2996 2994 2993 2992 2991 2990 2988 2987 2986 2984 2983 2982 2980 2979 2978 2976 2975 2973 2972 2970 2968 2966 2964 2963 2961 2959 2957
3022 3022 3021 3020 3020 3019 3019 3018 3018 3017 3017 3016 3016 3015 3015 3014 3014 3013 3013 3012 3011 3010 3010 3009 3008 3007 3006 3005 3005 3004 3003 3003 3002 3001 3000 2999 2998 2998 2997 2996 2995 2994 2993 2992 2991 2990 2988 2987 2986 2984 2983 2982 2980 2979 2977 2976 2975 2973 2972 2970 2968 2967 2965 2963 2962 2960 2958 2957 2955